This is the latest recevied weather packets stored in our database for station/object DL7GAI-7. If no packets are shown the sender has not sent any weather packets the latest 10 day(s).
| Time | Temp. | Humidity | Pressure | Rain* | Wind** | Luminosity | Snow |
|---|---|---|---|---|---|---|---|
| 1777481953 | 18.33° C | 27% | 1018.1 hPa | 0 mm | 5.81 m/s, 90° | - | - |
| 1777481125 | 18.33° C | 27% | 1018.1 hPa | 0 mm | 5.81 m/s, 90° | - | - |
| 1777480350 | 18.89° C | 28% | 1018 hPa | 0 mm | 6.26 m/s, 90° | - | - |
| 1777479540 | 18.89° C | 28% | 1018 hPa | 0 mm | 6.26 m/s, 90° | - | - |
| 1777478750 | 18.33° C | 30% | 1017.9 hPa | 0 mm | 6.71 m/s, 90° | - | - |
| 1777477900 | 18.33° C | 30% | 1017.9 hPa | 0 mm | 6.71 m/s, 90° | - | - |
| 1777477113 | 18.33° C | 30% | 1017.9 hPa | 0 mm | 6.71 m/s, 90° | - | - |
| 1777476280 | 19.44° C | 33% | 1017.6 hPa | 0 mm | 5.81 m/s, 45° | - | - |
| 1777475460 | 19.44° C | 33% | 1017.6 hPa | 0 mm | 5.81 m/s, 45° | - | - |
| 1777474680 | 19.44° C | 33% | 1017.6 hPa | 0 mm | 5.81 m/s, 45° | - | - |
| 1777473855 | 19.44° C | 33% | 1017.6 hPa | 0 mm | 5.81 m/s, 45° | - | - |
| 1777473070 | 18.89° C | 33% | 1017.9 hPa | 0 mm | 5.81 m/s, 45° | - | - |
| 1777472233 | 18.89° C | 33% | 1017.9 hPa | 0 mm | 5.81 m/s, 45° | - | - |
| 1777471380 | 18.89° C | 33% | 1017.9 hPa | 0 mm | 5.81 m/s, 45° | - | - |
| 1777470525 | 18.89° C | 33% | 1017.9 hPa | 0 mm | 5.81 m/s, 45° | - | - |
| 1777469663 | 18.89° C | 35% | 1017.9 hPa | 0 mm | 5.81 m/s, 90° | - | - |
| 1777468900 | 18.89° C | 35% | 1017.9 hPa | 0 mm | 5.81 m/s, 90° | - | - |
| 1777468095 | 18.89° C | 35% | 1017.9 hPa | 0 mm | 5.81 m/s, 90° | - | - |
| 1777467290 | 18.33° C | 38% | 1018.1 hPa | 0 mm | 6.26 m/s, 45° | - | - |
| 1777466465 | 18.33° C | 38% | 1018.1 hPa | 0 mm | 6.26 m/s, 45° | - | - |
| 1777465673 | 17.78° C | 40% | 1018.1 hPa | 0 mm | 6.26 m/s, 90° | - | - |
| 1777464813 | 17.78° C | 40% | 1018.1 hPa | 0 mm | 6.26 m/s, 90° | - | - |
| 1777463933 | 17.78° C | 41% | 1018.2 hPa | 0 mm | 4.92 m/s, 90° | - | - |
| 1777463097 | 17.78° C | 41% | 1018.2 hPa | 0 mm | 4.92 m/s, 90° | - | - |
| 1777462260 | 17.22° C | 44% | 1018.5 hPa | 0 mm | 4.02 m/s, 90° | - | - |
* Rain latest hour (hover to see other rain measurements)
** Current wind speed in m/s (hover to see current wind gust speed)